Zurück zum Katalog

STARLINK-34842

AktivKommunikationSSO
NORAD 65235·PAYLOAD·🇺🇸 United States

Gestartet Aug 18, 2025 von Vandenberg Space Force Base

Loading…

Nächste Überflüge (nächste 24 Stunden)

TLE

AktuellSource: CelesTrak SupGP

Epoche: Sep 14, 2026, 21:14 UTC

1 65235C 25179A   26257.88520833 -.00014185  00000+0 -44052-3 0  2579
2 65235  97.2833 297.3137 0001050 104.3192 266.5850 15.33433673    14

Verfolge STARLINK-34842 in Echtzeit mit AllMySat

Download on the App Store